TimeMST,TemperatureF,Dew PointF,Humidity,Sea Level PressureIn,VisibilityMPH,Wind Direction,Wind SpeedMPH,Gust SpeedMPH,PrecipitationIn,Events,Conditions,WindDirDegrees,DateUTC
12:53 AM,34.0,10.9,38,29.99,10.0,WSW,10.4,-,N/A,,Clear,240,2013-12-28 07:53:00
1:53 AM,30.9,10.9,43,29.99,10.0,WSW,11.5,-,N/A,,Clear,250,2013-12-28 08:53:00
2:53 AM,30.0,10.9,45,29.96,10.0,WSW,10.4,-,N/A,,Clear,240,2013-12-28 09:53:00
3:53 AM,28.9,10.9,47,29.94,10.0,WSW,8.1,-,N/A,,Clear,250,2013-12-28 10:53:00
4:53 AM,30.0,10.9,45,29.93,10.0,WSW,9.2,-,N/A,,Clear,240,2013-12-28 11:53:00
5:53 AM,30.0,10.9,45,29.91,10.0,WSW,9.2,-,N/A,,Clear,240,2013-12-28 12:53:00
6:53 AM,28.9,10.9,47,29.91,10.0,WSW,11.5,-,N/A,,Clear,250,2013-12-28 13:53:00
7:53 AM,32.0,12.9,45,29.91,10.0,WSW,10.4,-,N/A,,Clear,240,2013-12-28 14:53:00
8:53 AM,37.9,15.1,39,29.90,10.0,West,5.8,-,N/A,,Clear,270,2013-12-28 15:53:00
9:53 AM,48.9,16.0,27,29.88,10.0,WSW,8.1,-,N/A,,Clear,250,2013-12-28 16:53:00
10:53 AM,59.0,17.1,20,29.81,10.0,West,5.8,-,N/A,,Clear,260,2013-12-28 17:53:00
11:53 AM,62.1,17.1,18,29.79,10.0,WNW,8.1,-,N/A,,Clear,300,2013-12-28 18:53:00
12:53 PM,63.0,19.0,18,29.77,10.0,NNW,10.4,-,N/A,,Clear,340,2013-12-28 19:53:00
1:53 PM,63.0,19.0,18,29.76,10.0,North,13.8,-,N/A,,Clear,10,2013-12-28 20:53:00
2:53 PM,55.9,19.9,25,29.83,10.0,North,26.5,36.8,N/A,,Clear,10,2013-12-28 21:53:00
3:53 PM,48.9,23.0,36,29.89,10.0,North,27.6,34.5,N/A,,Clear,10,2013-12-28 22:53:00
4:53 PM,43.0,24.1,47,29.95,10.0,North,25.3,32.2,N/A,,Clear,10,2013-12-28 23:53:00
5:53 PM,37.9,24.1,57,30.02,10.0,North,20.7,31.1,N/A,,Clear,10,2013-12-29 00:53:00
6:53 PM,35.1,23.0,61,30.07,10.0,NNE,18.4,-,N/A,,Clear,20,2013-12-29 01:53:00
7:53 PM,28.0,19.0,69,30.13,10.0,North,25.3,40.3,N/A,,Clear,10,2013-12-29 02:53:00
8:13 PM,27.0,18.0,69,30.08,10.0,North,26.5,35.7,N/A,,Mostly Cloudy,10,2013-12-29 03:13:00
8:53 PM,25.0,16.0,69,30.17,9.0,North,27.6,41.4,N/A,,Overcast,360,2013-12-29 03:53:00
9:50 PM,21.2,12.2,68,30.13,10.0,North,23.0,33.4,N/A,,Scattered Clouds,360,2013-12-29 04:50:00
9:53 PM,21.0,12.0,68,30.18,10.0,North,24.2,33.4,N/A,,Partly Cloudy,360,2013-12-29 04:53:00
10:53 PM,19.0,9.0,65,30.18,10.0,North,25.3,36.8,N/A,,Overcast,360,2013-12-29 05:53:00
11:53 PM,17.1,7.0,65,30.21,10.0,North,29.9,39.1,N/A,,Overcast,350,2013-12-29 06:53:00